Tegucigalpa, Honduras

3:27 PM CST on October 21, 2017 (GMT -0600)
Toncontin International

Weather History for MHTG - January, 2014

Change the Weather History Date:

Sunday, January 26, 2014

  Actual Average Record
Temperature  
Mean Temperature 69 °F -  
Max Temperature 77 °F 79 °F 91 °F (2006)
Min Temperature 61 °F 57 °F 48 °F (2000)
Cooling Degree Days 4    
Growing Degree Days 19 (Base 50)    
Moisture  
Dew Point 60 °F    
Average Humidity 75    
Maximum Humidity 100    
Minimum Humidity 44    
Precipitation  
Precipitation 0.01 in 0.01 in - ()
Sea Level Pressure  
Sea Level Pressure 30.05 in    
Wind  
Wind Speed 8 mph ()    
Max Wind Speed 14 mph    
Max Gust Speed -    
Visibility 5.1 miles    
Events Rain    
Averages and records for this station are not official NWS values.
T = Trace of Precipitation, MM = Missing Value Source: Averaged Metar Reports

Daily Weather History Graph

Daily Weather History Graph

Search for Another Location

Airport or City:

Trip Planner

Search our weather history database for the weather conditions in past years. The results will help you decide how hot, cold, wet, or windy it might be!

Date:

Astronomy

Jan. 26, 2014 Rise Set
Actual Time 6:17 AM CST 5:45 PM CST
Civil Twilight 5:54 AM CST 6:08 PM CST
Nautical Twilight 5:28 AM CST 6:34 PM CST
Astronomical Twilight 5:03 AM CST 6:59 PM CST
Moon 1:51 AM CST (1/26) 1:39 PM CST (1/26)
Length of Visible Light 12h 13m
Length of Day
11h 28m
Waning Crescent, 23% of the Moon is Illuminated
Jan 26
Waning Crescent
Jan 30
New
Feb 6
First Quarter
Feb 14
Full
Feb 22
Last Quarter

Hourly Weather History & Observations

Time (CST) Temp. Dew Point Humidity Pressure Visibility Wind Dir Wind Speed Gust Speed Precip Events Conditions
12:00 AM 63 °F 62 °F 93% 30.02 in 2 mi North 9.2 mph - - Rain Light Drizzle
12:00 AM 62.6 °F 60.8 °F 94% 30.15 in 5.0 mi North 9.2 mph - N/A   Drizzle
1:00 AM 69.8 °F 69.8 °F 100% 30.04 in 1.9 mi Calm Calm - N/A   Light Drizzle
2:00 AM 62.6 °F 60.8 °F 94% 30.12 in 5.0 mi North 9.2 mph - N/A   Light Drizzle
3:00 AM 63 °F 60 °F 89% 29.97 in 4 mi North 9.2 mph - - Rain Light Drizzle
3:00 AM 62.6 °F 60.8 °F 94% 30.09 in 3.7 mi North 9.2 mph - N/A   Light Drizzle
4:00 AM 62.6 °F 59.0 °F 88% 30.09 in 3.1 mi NNE 11.5 mph - N/A   Mostly Cloudy
5:00 AM 60.8 °F 59.0 °F 94% 30.09 in 3.1 mi North 13.8 mph - N/A   Scattered Clouds
6:00 AM 62 °F 59 °F 85% 30.01 in 3 mi North 9.2 mph - -   Mostly Cloudy
6:00 AM 62.6 °F 59.0 °F 88% 30.12 in 3.1 mi North 9.2 mph - N/A   Mostly Cloudy
7:00 AM 62.6 °F 60.8 °F 94% 30.12 in 3.1 mi NE 4.6 mph - N/A   Mostly Cloudy
8:00 AM 62.6 °F 59.0 °F 88% 30.15 in 4.3 mi NNE 8.1 mph - N/A   Mostly Cloudy
9:00 AM 66 °F 60 °F 76% 30.03 in 4 mi North 11.5 mph - -   Haze
9:00 AM 66.2 °F 60.8 °F 83% 30.15 in 4.3 mi North 11.5 mph - N/A   Mostly Cloudy
10:00 AM 69.8 °F 60.8 °F 73% 30.15 in 6.2 mi North 11.5 mph - N/A   Scattered Clouds
11:00 AM 77.0 °F 59.0 °F 54% 30.15 in 6.2 mi North 11.5 mph - N/A   Scattered Clouds
12:00 PM 76 °F 58 °F 44% 29.91 in 7 mi North 10.4 mph - -   Haze
12:00 PM 77.0 °F 59.0 °F 54% 30.09 in 6.2 mi North 10.4 mph - N/A   Mostly Cloudy
1:00 PM 77.0 °F 59.0 °F 54% 30.06 in 6.2 mi North 10.4 mph - N/A   Mostly Cloudy
2:00 PM 77.0 °F 60.8 °F 57% 30.06 in 6.2 mi North 13.8 mph - N/A   Mostly Cloudy
3:00 PM 77 °F 60 °F 46% 29.86 in 7 mi North 11.5 mph - -   Haze
3:00 PM 77.0 °F 60.8 °F 57% 30.01 in 6.2 mi North 11.5 mph - N/A   Mostly Cloudy
4:00 PM 77.0 °F 60.8 °F 57% 30.01 in 6.2 mi North 11.5 mph - N/A   Mostly Cloudy
5:00 PM 75.2 °F 59.0 °F 57% 30.01 in 6.2 mi North 11.5 mph - N/A   Scattered Clouds
5:43 PM 75.2 °F 59.0 °F 57% 30.01 in 6.2 mi North 11.5 mph - N/A   Scattered Clouds
6:00 PM 73 °F 60 °F 54% 29.90 in 7 mi North 11.5 mph - -   Haze
6:00 PM 73.4 °F 59.0 °F 61% 30.04 in 6.2 mi North 11.5 mph - N/A   Scattered Clouds
7:00 PM 69.8 °F 62.6 °F 78% 30.04 in 6.2 mi NE 9.2 mph - N/A   Partly Cloudy
8:00 PM 69.8 °F 62.6 °F 78% 30.04 in 6.2 mi North 9.2 mph - N/A   Partly Cloudy
9:00 PM 66 °F 60 °F 75% 29.95 in 6 mi North 4.6 mph - -   Haze
9:00 PM 66.2 °F 60.8 °F 83% 30.09 in 6.2 mi North 4.6 mph - N/A   Scattered Clouds
10:00 PM 64.4 °F 60.8 °F 88% 30.09 in 6.2 mi North 4.6 mph - N/A   Partly Cloudy
11:00 PM 64.4 °F 60.8 °F 88% 30.09 in 6.2 mi North 4.6 mph - N/A   Mostly Cloudy